| time (UTC) | temp C | wind direction | speed KPH | gust KPH | rain 1hr cm | rain 24hr cm | rain mn cm | humidity % | barometer mb |
| 20260507023435 | 60 | 32 | 12.9 | 16.1 | 0.00 | 0.05 | 0.05 | 1016.3 | |
| 20260507022932 | 60 | 4 | 11.3 | 12.9 | 0.00 | 0.05 | 0.05 | 1016.2 | |
| 20260507022429 | 60 | 18 | 12.9 | 12.9 | 0.00 | 0.05 | 0.05 | 1016.3 | |
| 20260507021925 | 60 | 358 | 12.9 | 17.7 | 0.00 | 0.05 | 0.05 | 1016.4 | |
| 20260507021420 | 60 | 18 | 11.3 | 12.9 | 0.00 | 0.05 | 0.05 | 1016.2 | |
| 20260507020918 | 60 | 10 | 11.3 | 12.9 | 0.00 | 0.05 | 0.05 | 1016.0 | |
| 20260507020414 | 60 | 358 | 11.3 | 14.5 | 0.00 | 0.05 | 0.05 | 1015.8 | |
| 20260507015912 | 60 | 1 | 14.5 | 16.1 | 0.00 | 0.05 | 0.05 | 1015.8 | |
| 20260507015410 | 60 | 5 | 14.5 | 17.7 | 0.00 | 0.05 | 0.05 | 1015.8 | |
| 20260507014907 | 60 | 5 | 20.9 | 24.1 | 0.00 | 0.05 | 0.05 | 1015.7 | |
| 20260507014403 | 60 | 3 | 3.2 | 8.0 | 0.00 | 0.05 | 0.05 | 1015.8 | |
| 20260507013859 | 60 | 6 | 9.7 | 11.3 | 0.00 | 0.05 | 0.05 | 1015.6 | |
| 20260507013356 | 60 | 350 | 11.3 | 12.9 | 0.00 | 0.05 | 0.05 | 1015.6 | |
| 20260507012854 | 60 | 349 | 11.3 | 12.9 | 0.00 | 0.05 | 0.05 | 1015.2 | |
| 20260507012350 | 60 | 11 | 12.9 | 14.5 | 0.00 | 0.05 | 0.05 | 1015.2 | |
| 20260507011847 | 60 | 22 | 12.9 | 14.5 | 0.00 | 0.05 | 0.05 | 1015.1 | |
| 20260507011344 | 60 | 20 | 12.9 | 16.1 | 0.00 | 0.05 | 0.05 | 1014.9 | |
| 20260507010844 | 60 | 319 | 11.3 | 12.9 | 0.00 | 0.05 | 0.05 | 1014.8 | |
| 20260507010339 | 60 | 8 | 8.0 | 9.7 | 0.00 | 0.05 | 0.05 | 1014.4 | |
| 20260507005837 | 60 | 43 | 11.3 | 12.9 | 0.00 | 0.05 | 0.05 | 1014.8 | |
| 20260507005333 | 60 | 354 | 11.3 | 14.5 | 0.00 | 0.05 | 0.05 | 1014.6 | |
| 20260507004831 | 60 | 6 | 8.0 | 11.3 | 0.00 | 0.05 | 0.05 | 1014.7 | |
| 20260507004328 | 60 | 340 | 12.9 | 14.5 | 0.00 | 0.05 | 0.05 | 1014.7 | |
| 20260507003825 | 60 | 11 | 11.3 | 14.5 | 0.00 | 0.05 | 0.05 | 1014.4 | |
| 20260507003321 | 60 | 12 | 12.9 | 16.1 | 0.00 | 0.05 | 0.05 | 1014.2 | |
| 20260507002815 | 60 | 1 | 11.3 | 12.9 | 0.00 | 0.05 | 0.05 | 1014.1 | |
| 20260507002312 | 60 | 336 | 14.5 | 17.7 | 0.00 | 0.05 | 0.05 | 1014.0 | |
| 20260507001809 | 60 | 5 | 8.0 | 12.9 | 0.00 | 0.05 | 0.05 | 1014.0 | |
| 20260507001306 | 60 | 10 | 11.3 | 12.9 | 0.00 | 0.05 | 0.05 | 1014.1 | |
| 20260507000802 | 60 | 359 | 8.0 | 9.7 | 0.00 | 0.05 | 0.05 | 1013.9 | |
| 20260507000259 | 60 | 9 | 17.7 | 20.9 | 0.00 | 0.05 | 0.05 | 1013.9 | |
| 20260506235755 | 60 | 22 | 11.3 | 12.9 | 0.00 | 0.05 | 0.05 | 1014.0 | |
| 20260506235251 | 60 | 16 | 9.7 | 14.5 | 0.00 | 0.05 | 0.05 | 1014.0 | |
| 20260506234748 | 60 | 1 | 8.0 | 11.3 | 0.00 | 0.05 | 0.05 | 1014.0 | |
| 20260506234245 | 60 | 21 | 8.0 | 12.9 | 0.00 | 0.05 | 0.05 | 1013.8 | |
| 20260506233743 | 60 | 38 | 14.5 | 14.5 | 0.00 | 0.05 | 0.05 | 1013.7 | |
| 20260506233239 | 60 | 42 | 12.9 | 14.5 | 0.00 | 0.05 | 0.05 | 1013.6 | |
| 20260506232735 | 60 | 57 | 4.8 | 8.0 | 0.00 | 0.05 | 0.05 | 1013.4 | |
| 20260506232230 | 60 | 19 | 14.5 | 16.1 | 0.00 | 0.05 | 0.05 | 1013.5 | |
| 20260506231728 | 60 | 9 | 11.3 | 11.3 | 0.00 | 0.05 | 0.05 | 1013.5 | |
| 20260506231226 | 60 | 340 | 8.0 | 9.7 | 0.00 | 0.05 | 0.05 | 1013.6 | |
| 20260506230723 | 60 | 21 | 12.9 | 17.7 | 0.00 | 0.05 | 0.05 | 1013.4 | |
| 20260506230219 | 60 | 38 | 12.9 | 14.5 | 0.00 | 0.05 | 0.05 | 1013.4 | |
| 20260506225716 | 60 | 39 | 14.5 | 22.5 | 0.00 | 0.05 | 0.05 | 1013.5 | |
| 20260506225213 | 60 | 338 | 12.9 | 12.9 | 0.00 | 0.05 | 0.05 | 1013.3 | |
| 20260506224709 | 60 | 338 | 9.7 | 12.9 | 0.00 | 0.05 | 0.05 | 1013.4 | |
| 20260506224207 | 60 | 309 | 9.7 | 12.9 | 0.00 | 0.05 | 0.05 | 1013.4 | |
| 20260506223703 | 60 | 14 | 11.3 | 12.9 | 0.00 | 0.05 | 0.05 | 1013.3 | |
| 20260506223158 | 60 | 0 | 17.7 | 20.9 | 0.00 | 0.05 | 0.05 | 1013.2 | |
| 20260506222656 | 60 | 17 | 22.5 | 25.7 | 0.00 | 0.05 | 0.05 | 1013.1 | |
| 20260506222151 | 60 | 8 | 12.9 | 14.5 | 0.00 | 0.05 | 0.05 | 1013.3 | |
| 20260506221650 | 60 | 0 | 19.3 | 22.5 | 0.00 | 0.05 | 0.05 | 1013.2 | |
| 20260506221147 | 60 | 16 | 14.5 | 17.7 | 0.00 | 0.05 | 0.05 | 1013.5 | |
| 20260506220644 | 60 | 344 | 8.0 | 12.9 | 0.00 | 0.05 | 0.05 | 1013.1 | |
| 20260506220139 | 60 | 331 | 4.8 | 9.7 | 0.00 | 0.05 | 0.05 | 1013.0 | |
| 20260506215636 | 60 | 45 | 3.2 | 4.8 | 0.00 | 0.05 | 0.05 | 1013.1 | |
| 20260506215131 | 60 | 350 | 6.4 | 9.7 | 0.00 | 0.05 | 0.05 | 1012.9 | |
| 20260506214628 | 60 | 12 | 12.9 | 14.5 | 0.00 | 0.05 | 0.05 | 1013.3 | |
| 20260506214126 | 60 | 331 | 11.3 | 12.9 | 0.00 | 0.05 | 0.05 | 1013.1 | |
| 20260506213624 | 60 | 23 | 16.1 | 17.7 | 0.00 | 0.05 | 0.05 | 1013.2 | |
| 20260506213121 | 60 | 342 | 1.6 | 3.2 | 0.00 | 0.05 | 0.05 | 1013.4 | |
| 20260506212618 | 60 | 62 | 9.7 | 11.3 | 0.00 | 0.05 | 0.05 | 1013.1 | |
| 20260506212113 | 60 | 60 | 8.0 | 9.7 | 0.00 | 0.05 | 0.05 | 1013.3 | |
| 20260506211609 | 60 | 66 | 3.2 | 4.8 | 0.00 | 0.05 | 0.05 | 1013.4 | |
| 20260506211106 | 60 | 113 | 0.0 | 0.0 | 0.00 | 0.05 | 0.05 | 1013.6 | |
| 20260506210603 | 60 | 351 | 1.6 | 3.2 | 0.00 | 0.05 | 0.05 | 1013.5 | |
| 20260506210059 | 60 | 309 | 3.2 | 4.8 | 0.00 | 0.05 | 0.05 | 1013.7 | |
| 20260506205555 | 60 | 27 | 1.6 | 3.2 | 0.00 | 0.05 | 0.05 | 1013.6 | |
| 20260506205045 | 60 | 5 | 12.9 | 16.1 | 0.00 | 0.05 | 0.05 | 1013.6 | |
| 20260506204543 | 60 | 32 | 0.0 | 0.0 | 0.00 | 0.05 | 0.05 | 1013.6 | |
| 20260506204040 | 60 | 349 | 0.0 | 3.2 | 0.00 | 0.05 | 0.05 | 1013.9 | |
| 20260506203539 | 60 | 1 | 6.4 | 12.9 | 0.00 | 0.05 | 0.05 | 1013.9 | |
| 20260506203034 | 60 | 344 | 4.8 | 9.7 | 0.00 | 0.05 | 0.05 | 1013.9 | |
| 20260506202532 | 60 | 5 | 8.0 | 9.7 | 0.00 | 0.05 | 0.05 | 1013.9 | |
| 20260506202028 | 60 | 358 | 6.4 | 12.9 | 0.00 | 0.05 | 0.05 | 1013.7 | |
| 20260506201526 | 60 | 310 | 1.6 | 8.0 | 0.00 | 0.05 | 0.05 | 1014.1 | |
| 20260506201022 | 60 | 68 | 6.4 | 8.0 | 0.00 | 0.05 | 0.05 | 1014.0 | |
| 20260506200518 | 60 | 198 | 0.0 | 0.0 | 0.00 | 0.05 | 0.05 | 1014.2 | |
| 20260506200015 | 60 | 22 | 3.2 | 8.0 | 0.00 | 0.05 | 0.05 | 1014.2 | |
| 20260506195512 | 60 | 310 | 0.0 | 0.0 | 0.00 | 0.05 | 0.05 | 1014.6 | |
| 20260506195008 | 60 | 310 | 1.6 | 4.8 | 0.00 | 0.05 | 0.05 | 1014.4 | |
| 20260506194506 | 60 | 287 | 0.0 | 1.6 | 0.00 | 0.05 | 0.05 | 1014.7 | |
| 20260506194002 | 60 | 307 | 0.0 | 0.0 | 0.00 | 0.05 | 0.05 | 1014.4 | |
| 20260506193500 | 60 | 20 | 0.0 | 1.6 | 0.00 | 0.05 | 0.05 | 1014.7 | |
| 20260506192956 | 60 | 21 | 0.0 | 0.0 | 0.00 | 0.05 | 0.05 | 1014.4 | |
| 20260506192453 | 60 | 310 | 0.0 | 0.0 | 0.00 | 0.05 | 0.05 | 1014.9 | |
| 20260506191944 | 60 | 27 | 0.0 | 0.0 | 0.00 | 0.05 | 0.05 | 1015.0 | |
| 20260506191441 | 60 | 49 | 0.0 | 0.0 | 0.00 | 0.05 | 0.05 | 1015.2 | |
| 20260506190937 | 60 | 34 | 1.6 | 1.6 | 0.00 | 0.05 | 0.05 | 1014.9 | |
| 20260506190434 | 60 | 14 | 8.0 | 9.7 | 0.00 | 0.05 | 0.05 | 1015.2 | |
| 20260506185931 | 60 | 355 | 6.4 | 8.0 | 0.00 | 0.05 | 0.05 | 1015.0 | |
| 20260506185428 | 60 | 313 | 4.8 | 4.8 | 0.00 | 0.05 | 0.05 | 1015.5 | |
| 20260506184925 | 60 | 16 | 11.3 | 12.9 | 0.00 | 0.05 | 0.05 | 1015.3 | |
| 20260506184422 | 60 | 317 | 4.8 | 4.8 | 0.00 | 0.05 | 0.05 | 1015.2 | |
| 20260506183919 | 60 | 321 | 6.4 | 9.7 | 0.00 | 0.05 | 0.05 | 1014.9 | |
| 20260506183414 | 60 | 275 | 14.5 | 16.1 | 0.00 | 0.05 | 0.05 | 1014.9 | |
| 20260506182912 | 60 | 11 | 16.1 | 20.9 | 0.00 | 0.05 | 0.05 | 1014.8 | |
| 20260506182409 | 60 | 359 | 4.8 | 8.0 | 0.00 | 0.05 | 0.05 | 1015.0 | |
| 20260506181907 | 60 | 15 | 14.5 | 17.7 | 0.00 | 0.05 | 0.05 | 1015.0 | |
| 20260506181404 | 60 | 273 | 4.8 | 9.7 | 0.00 | 0.05 | 0.05 | 1014.8 | |
| 20260506180901 | 60 | 347 | 8.0 | 14.5 | 0.00 | 0.05 | 0.05 | 1015.1 | |
| 20260506180357 | 60 | 22 | 11.3 | 12.9 | 0.00 | 0.05 | 0.05 | 1014.9 | |
| 20260506175854 | 60 | 16 | 12.9 | 17.7 | 0.00 | 0.05 | 0.05 | 1014.8 | |
| 20260506175350 | 60 | 9 | 14.5 | 17.7 | 0.00 | 0.05 | 0.05 | 1014.9 | |
| 20260506174847 | 60 | 14 | 17.7 | 22.5 | 0.00 | 0.05 | 0.05 | 1015.2 | |
| 20260506174345 | 60 | 8 | 12.9 | 14.5 | 0.00 | 0.05 | 0.05 | 1015.1 | |
| 20260506173843 | 60 | 349 | 9.7 | 14.5 | 0.00 | 0.05 | 0.05 | 1015.2 | |
| 20260506173339 | 60 | 330 | 14.5 | 16.1 | 0.00 | 0.05 | 0.05 | 1015.6 | |
| 20260506172836 | 60 | 344 | 9.7 | 12.9 | 0.00 | 0.05 | 0.05 | 1015.4 | |
| 20260506172332 | 60 | 358 | 16.1 | 17.7 | 0.00 | 0.05 | 0.05 | 1015.4 | |
| 20260506171824 | 60 | 18 | 12.9 | 14.5 | 0.00 | 0.05 | 0.05 | 1015.4 | |
| 20260506171321 | 60 | 36 | 9.7 | 14.5 | 0.00 | 0.05 | 0.05 | 1015.2 | |
| 20260506170819 | 60 | 344 | 14.5 | 16.1 | 0.00 | 0.05 | 0.05 | 1015.0 | |
| 20260506170314 | 60 | 1 | 12.9 | 14.5 | 0.00 | 0.05 | 0.05 | 1015.4 | |
| 20260506165814 | 60 | 359 | 19.3 | 20.9 | 0.00 | 0.05 | 0.05 | 1015.1 | |
| 20260506165311 | 60 | 14 | 16.1 | 20.9 | 0.00 | 0.05 | 0.05 | 1014.9 | |
| 20260506164808 | 60 | 11 | 17.7 | 20.9 | 0.00 | 0.05 | 0.05 | 1014.7 | |
| 20260506164304 | 60 | 1 | 19.3 | 24.1 | 0.00 | 0.05 | 0.05 | 1014.8 | |
| 20260506163801 | 60 | 359 | 16.1 | 22.5 | 0.00 | 0.05 | 0.05 | 1015.0 | |
| 20260506163256 | 60 | 352 | 9.7 | 11.3 | 0.00 | 0.05 | 0.05 | 1015.2 | |
| 20260506162752 | 60 | 25 | 17.7 | 24.1 | 0.00 | 0.05 | 0.05 | 1015.2 | |
| 20260506162250 | 60 | 47 | 6.4 | 8.0 | 0.00 | 0.05 | 0.05 | 1015.0 | |
| 20260506161747 | 60 | 343 | 12.9 | 17.7 | 0.00 | 0.05 | 0.05 | 1014.9 | |
| 20260506161244 | 60 | 21 | 14.5 | 16.1 | 0.00 | 0.05 | 0.05 | 1015.1 | |
| 20260506160741 | 60 | 352 | 16.1 | 17.7 | 0.00 | 0.05 | 0.05 | 1014.8 | |
| 20260506160238 | 60 | 11 | 16.1 | 17.7 | 0.00 | 0.05 | 0.05 | 1014.6 | |
| 20260506155737 | 60 | 8 | 14.5 | 17.7 | 0.00 | 0.05 | 0.05 | 1015.1 | |
| 20260506155233 | 60 | 340 | 16.1 | 20.9 | 0.00 | 0.05 | 0.05 | 1014.9 | |
| 20260506153341 | 60 | 10 | 14.5 | 17.7 | 0.00 | 0.05 | 0.05 | 1014.0 | |
| 20260506152837 | 60 | 6 | 14.5 | 20.9 | 0.00 | 0.05 | 0.05 | 1014.4 | |
| 20260506152335 | 60 | 343 | 11.3 | 12.9 | 0.00 | 0.05 | 0.05 | 1014.5 | |
| 20260506151834 | 60 | 10 | 11.3 | 16.1 | 0.00 | 0.05 | 0.05 | 1014.4 | |
| 20260506151330 | 60 | 357 | 16.1 | 20.9 | 0.00 | 0.05 | 0.05 | 1014.5 | |
| 20260506150827 | 60 | 327 | 11.3 | 12.9 | 0.00 | 0.05 | 0.05 | 1014.9 | |
| 20260506150324 | 60 | 2 | 11.3 | 12.9 | 0.00 | 0.05 | 0.05 | 1014.8 | |
| 20260506145821 | 60 | 25 | 3.2 | 3.2 | 0.18 | 0.05 | 0.05 | 1015.1 | |
| 20260506145317 | 60 | 58 | 0.0 | 0.0 | 0.18 | 0.05 | 0.05 | 1015.4 | |
| 20260506144815 | 60 | 11 | 12.9 | 16.1 | 0.00 | 0.03 | 0.03 | 1015.4 | |
| 20260506144311 | 60 | 339 | 19.3 | 22.5 | 0.18 | 0.03 | 0.03 | 1014.7 | |
| 20260506143810 | 60 | 317 | 6.4 | 8.0 | 0.00 | 0.00 | 0.00 | 1016.7 | |
| 20260506143306 | 60 | 296 | 3.2 | 4.8 | 0.00 | 0.00 | 0.00 | 1017.1 | |
| 20260506142804 | 60 | 320 | 1.6 | 4.8 | 0.00 | 0.00 | 0.00 | 1016.6 | |
| 20260506142305 | 60 | 249 | 0.0 | 0.0 | 0.00 | 0.00 | 0.00 | 1016.4 | |
| 20260506141800 | 60 | 236 | 0.0 | 0.0 | 0.00 | 0.00 | 0.00 | 1016.4 | |
| 20260506141258 | 60 | 288 | 6.4 | 11.3 | 0.00 | 0.00 | 0.00 | 1015.6 | |
| 20260506140755 | 60 | 337 | 3.2 | 3.2 | 0.00 | 0.00 | 0.00 | 1015.0 | |
| 20260506140252 | 60 | 6 | 19.3 | 24.1 | 0.00 | 0.00 | 0.00 | 1013.5 | |
| 20260506135749 | 60 | 22 | 16.1 | 17.7 | 0.00 | 0.00 | 0.00 | 1014.2 | |
| 20260506135245 | 60 | 353 | 12.9 | 14.5 | 0.00 | 0.00 | 0.00 | 1014.8 | |
| 20260506134742 | 60 | 347 | 17.7 | 24.1 | 0.00 | 0.00 | 0.00 | 1014.7 | |
| 20260506134239 | 60 | 11 | 22.5 | 29.0 | 0.00 | 0.00 | 0.00 | 1014.7 | |
| 20260506133736 | 60 | 9 | 12.9 | 16.1 | 0.00 | 0.00 | 0.00 | 1015.1 | |
| 20260506133232 | 60 | 342 | 12.9 | 16.1 | 0.00 | 0.00 | 0.00 | 1015.5 | |
| 20260506132729 | 60 | 354 | 4.8 | 8.0 | 0.00 | 0.00 | 0.00 | 1015.2 | |
| 20260506132227 | 60 | 304 | 4.8 | 4.8 | 0.00 | 0.00 | 0.00 | 1015.6 | |
| 20260506131725 | 60 | 10 | 17.7 | 24.1 | 0.00 | 0.00 | 0.00 | 1015.6 | |
| 20260506131220 | 60 | 7 | 8.0 | 16.1 | 0.00 | 0.00 | 0.00 | 1014.5 | |
| 20260506130717 | 60 | 343 | 12.9 | 12.9 | 0.00 | 0.00 | 0.00 | 1014.0 | |
| 20260506130214 | 60 | 25 | 14.5 | 16.1 | 0.00 | 0.00 | 0.00 | 1014.1 | |
| 20260506125712 | 60 | 26 | 8.0 | 11.3 | 0.00 | 0.00 | 0.00 | 1014.0 | |
| 20260506125210 | 60 | 10 | 12.9 | 17.7 | 0.00 | 0.00 | 0.00 | 1013.8 | |
| 20260506124708 | 60 | 10 | 14.5 | 17.7 | 0.00 | 0.00 | 0.00 | 1013.7 | |
| 20260506124206 | 60 | 358 | 12.9 | 14.5 | 0.00 | 0.00 | 0.00 | 1013.3 | |
| 20260506123703 | 60 | 16 | 11.3 | 14.5 | 0.00 | 0.00 | 0.00 | 1013.1 | |
| 20260506123202 | 60 | 346 | 19.3 | 32.2 | 0.00 | 0.00 | 0.00 | 1013.3 | |
| 20260506122658 | 60 | 17 | 14.5 | 16.1 | 0.00 | 0.00 | 0.00 | 1013.1 | |
| 20260506122155 | 60 | 356 | 17.7 | 22.5 | 0.00 | 0.00 | 0.00 | 1013.2 | |
| 20260506121653 | 60 | 27 | 9.7 | 12.9 | 0.00 | 0.00 | 0.00 | 1013.3 | |
| 20260506121149 | 60 | 343 | 11.3 | 12.9 | 0.00 | 0.00 | 0.00 | 1013.2 | |
| 20260506120647 | 60 | 27 | 19.3 | 22.5 | 0.00 | 0.00 | 0.00 | 1013.2 | |
| 20260506120144 | 60 | 17 | 19.3 | 22.5 | 0.00 | 0.00 | 0.00 | 1013.1 | |
| 20260506115643 | 60 | 347 | 11.3 | 14.5 | 0.00 | 0.00 | 0.00 | 1012.7 | |
| 20260506115140 | 60 | 285 | 9.7 | 12.9 | 0.00 | 0.00 | 0.00 | 1013.1 | |
| 20260506114637 | 60 | 5 | 16.1 | 20.9 | 0.00 | 0.00 | 0.00 | 1013.2 | |
| 20260506114135 | 60 | 352 | 11.3 | 16.1 | 0.00 | 0.00 | 0.00 | 1012.9 | |
| 20260506113634 | 60 | 6 | 8.0 | 9.7 | 0.00 | 0.00 | 0.00 | 1013.2 | |
| 20260506113130 | 60 | 318 | 16.1 | 22.5 | 0.00 | 0.00 | 0.00 | 1013.2 | |
| 20260506112626 | 60 | 342 | 12.9 | 16.1 | 0.00 | 0.00 | 0.00 | 1012.8 | |
| 20260506112124 | 60 | 335 | 12.9 | 17.7 | 0.00 | 0.00 | 0.00 | 1012.7 | |
| 20260506111622 | 60 | 2 | 11.3 | 16.1 | 0.00 | 0.00 | 0.00 | 1012.6 | |
| 20260506111119 | 60 | 318 | 9.7 | 12.9 | 0.00 | 0.00 | 0.00 | 1012.6 | |
| 20260506110617 | 60 | 333 | 11.3 | 16.1 | 0.00 | 0.00 | 0.00 | 1012.3 | |
| 20260506110114 | 60 | 317 | 6.4 | 9.7 | 0.00 | 0.00 | 0.00 | 1012.4 | |
| 20260506105610 | 60 | 33 | 9.7 | 12.9 | 0.00 | 0.00 | 0.00 | 1012.1 | |
| 20260506105107 | 60 | 341 | 11.3 | 16.1 | 0.00 | 0.00 | 0.00 | 1012.2 | |
| 20260506104606 | 60 | 311 | 14.5 | 17.7 | 0.00 | 0.00 | 0.00 | 1011.8 | |
| 20260506104103 | 60 | 17 | 9.7 | 12.9 | 0.00 | 0.00 | 0.00 | 1011.8 | |
| 20260506103600 | 60 | 337 | 17.7 | 20.9 | 0.00 | 0.00 | 0.00 | 1011.7 | |
| 20260506103056 | 60 | 320 | 16.1 | 22.5 | 0.00 | 0.00 | 0.00 | 1011.9 | |
| 20260506102555 | 60 | 302 | 11.3 | 12.9 | 0.00 | 0.00 | 0.00 | 1011.8 | |
| 20260506102052 | 60 | 348 | 17.7 | 20.9 | 0.00 | 0.00 | 0.00 | 1011.7 | |
| 20260506101548 | 60 | 335 | 14.5 | 20.9 | 0.00 | 0.00 | 0.00 | 1011.6 | |
| 20260506101046 | 60 | 313 | 12.9 | 16.1 | 0.00 | 0.00 | 0.00 | 1011.6 | |
| 20260506100544 | 60 | 316 | 8.0 | 11.3 | 0.00 | 0.00 | 0.00 | 1011.3 | |
| 20260506100041 | 60 | 303 | 12.9 | 16.1 | 0.00 | 0.00 | 0.00 | 1011.1 | |
| 20260506095540 | 60 | 338 | 12.9 | 14.5 | 0.00 | 0.00 | 0.00 | 1011.3 | |
| 20260506095036 | 60 | 12 | 6.4 | 11.3 | 0.00 | 0.00 | 0.00 | 1011.0 | |
| 20260506094534 | 60 | 6 | 11.3 | 14.5 | 0.00 | 0.00 | 0.00 | 1011.1 | |
| 20260506094032 | 60 | 340 | 11.3 | 14.5 | 0.00 | 0.00 | 0.00 | 1010.8 | |
| 20260506093530 | 60 | 339 | 12.9 | 14.5 | 0.00 | 0.00 | 0.00 | 1010.5 | |
| 20260506093027 | 60 | 2 | 14.5 | 16.1 | 0.00 | 0.00 | 0.00 | 1010.6 | |
| 20260506092525 | 60 | 351 | 11.3 | 12.9 | 0.00 | 0.00 | 0.00 | 1010.6 | |
| 20260506092021 | 60 | 356 | 11.3 | 12.9 | 0.00 | 0.00 | 0.00 | 1010.6 | |
| 20260506091520 | 60 | 358 | 14.5 | 16.1 | 0.00 | 0.00 | 0.00 | 1010.7 | |
| 20260506091016 | 60 | 315 | 9.7 | 12.9 | 0.00 | 0.00 | 0.00 | 1010.8 | |
| 20260506090514 | 60 | 327 | 8.0 | 8.0 | 0.00 | 0.00 | 0.00 | 1010.8 | |
| 20260506090010 | 60 | 356 | 6.4 | 8.0 | 0.00 | 0.00 | 0.00 | 1010.4 | |
| 20260506085507 | 60 | 19 | 8.0 | 9.7 | 0.00 | 0.00 | 0.00 | 1010.5 | |
| 20260506085004 | 60 | 9 | 8.0 | 9.7 | 0.00 | 0.00 | 0.00 | 1010.3 | |
| 20260506084501 | 60 | 312 | 4.8 | 4.8 | 0.00 | 0.00 | 0.00 | 1010.7 | |
| 20260506083957 | 60 | 6 | 11.3 | 14.5 | 0.00 | 0.00 | 0.00 | 1010.6 | |
| 20260506083454 | 60 | 347 | 8.0 | 11.3 | 0.00 | 0.00 | 0.00 | 1010.4 | |
| 20260506082951 | 60 | 352 | 4.8 | 8.0 | 0.00 | 0.00 | 0.00 | 1010.4 | |
| 20260506082448 | 60 | 332 | 8.0 | 9.7 | 0.00 | 0.00 | 0.00 | 1010.3 | |
| 20260506081944 | 60 | 327 | 1.6 | 9.7 | 0.00 | 0.00 | 0.00 | 1010.2 | |
| 20260506081443 | 60 | 16 | 9.7 | 12.9 | 0.00 | 0.00 | 0.00 | 1010.2 | |
| 20260506080939 | 60 | 8 | 12.9 | 14.5 | 0.00 | 0.00 | 0.00 | 1010.2 | |
| 20260506080436 | 60 | 12 | 17.7 | 20.9 | 0.00 | 0.00 | 0.00 | 1010.0 | |
| 20260506073420 | 60 | 324 | 4.8 | 8.0 | 0.00 | 0.00 | 0.00 | 1010.0 | |
| 20260506072918 | 60 | 22 | 12.9 | 16.1 | 0.00 | 0.00 | 0.00 | 1010.1 | |
| 20260506072414 | 60 | 322 | 9.7 | 9.7 | 0.00 | 0.00 | 0.00 | 1010.5 | |
| 20260506071912 | 60 | 350 | 8.0 | 9.7 | 0.00 | 0.00 | 0.00 | 1010.1 | |
| 20260506071410 | 60 | 329 | 8.0 | 9.7 | 0.00 | 0.00 | 0.00 | 1010.5 | |
| 20260506070907 | 60 | 328 | 8.0 | 9.7 | 0.00 | 0.00 | 0.00 | 1010.3 | |
| 20260506070403 | 60 | 348 | 8.0 | 9.7 | 0.00 | 0.00 | 0.00 | 1010.1 | |
| 20260506062341 | 60 | 41 | 8.0 | 9.7 | 0.00 | 0.00 | 0.00 | 1009.2 | |
| 20260506061837 | 60 | 17 | 14.5 | 17.7 | 0.00 | 0.00 | 0.00 | 1009.0 | |
| 20260506061333 | 60 | 28 | 0.0 | 0.0 | 0.00 | 0.00 | 0.00 | 1009.1 | |
| 20260506060832 | 60 | 40 | 6.4 | 9.7 | 0.00 | 0.00 | 0.00 | 1009.6 | |
| 20260506060329 | 60 | 5 | 17.7 | 22.5 | 0.00 | 0.00 | 0.00 | 1009.6 | |
| 20260506051301 | 60 | 13 | 20.9 | 24.1 | 0.00 | 0.00 | 0.00 | 1009.6 | |
| 20260506050759 | 60 | 18 | 20.9 | 24.1 | 0.00 | 0.00 | 0.00 | 1009.6 | |
| 20260506050256 | 60 | 12 | 17.7 | 22.5 | 0.00 | 0.00 | 0.00 | 1009.7 | |
| 20260506044747 | 60 | 1 | 8.0 | 9.7 | 0.00 | 0.00 | 0.00 | 1009.5 | |
| 20260506044244 | 60 | 30 | 11.3 | 14.5 | 0.00 | 0.00 | 0.00 | 1009.6 | |
| 20260506043742 | 60 | 10 | 12.9 | 14.5 | 0.00 | 0.00 | 0.00 | 1009.8 | |
| 20260506043239 | 60 | 16 | 12.9 | 14.5 | 0.00 | 0.00 | 0.00 | 1009.6 | |
| 20260506042737 | 60 | 310 | 11.3 | 14.5 | 0.00 | 0.00 | 0.00 | 1009.5 | |
| 20260506042236 | 60 | 318 | 12.9 | 17.7 | 0.00 | 0.00 | 0.00 | 1009.2 | |
| 20260506041734 | 60 | 354 | 11.3 | 12.9 | 0.00 | 0.00 | 0.00 | 1009.6 | |
| 20260506041230 | 60 | 351 | 14.5 | 16.1 | 0.00 | 0.00 | 0.00 | 1009.6 | |
| 20260506040728 | 60 | 316 | 9.7 | 11.3 | 0.00 | 0.00 | 0.00 | 1009.5 | |
| 20260506040225 | 60 | 19 | 16.1 | 17.7 | 0.00 | 0.00 | 0.00 | 1009.5 | |
| 20260506035721 | 60 | 3 | 16.1 | 20.9 | 0.00 | 0.00 | 0.00 | 1009.5 | |
| 20260506035218 | 60 | 358 | 11.3 | 14.5 | 0.00 | 0.00 | 0.00 | 1009.4 | |
| 20260506034715 | 60 | 44 | 8.0 | 9.7 | 0.00 | 0.00 | 0.00 | 1009.6 | |
| 20260506034213 | 60 | 348 | 19.3 | 24.1 | 0.00 | 0.00 | 0.00 | 1009.4 | |
| 20260506033710 | 60 | 342 | 11.3 | 16.1 | 0.00 | 0.00 | 0.00 | 1009.4 | |
| 20260506033207 | 60 | 345 | 24.1 | 29.0 | 0.00 | 0.00 | 0.00 | 1009.4 | |
| 20260506032703 | 60 | 8 | 20.9 | 22.5 | 0.00 | 0.00 | 0.00 | 1009.2 | |
| 20260506032201 | 60 | 23 | 11.3 | 14.5 | 0.00 | 0.00 | 0.00 | 1009.2 | |
| 20260506031657 | 60 | 308 | 8.0 | 9.7 | 0.00 | 0.00 | 0.00 | 1008.9 | |
| 20260506031155 | 60 | 19 | 20.9 | 24.1 | 0.00 | 0.00 | 0.00 | 1008.6 | |
| 20260506030653 | 60 | 35 | 11.3 | 16.1 | 0.00 | 0.00 | 0.00 | 1008.4 | |
| 20260506030149 | 60 | 357 | 17.7 | 22.5 | 0.00 | 0.00 | 0.00 | 1008.7 | |
| 20260506025646 | 60 | 18 | 12.9 | 16.1 | 0.00 | 0.00 | 0.00 | 1008.6 | |
| 20260506025142 | 60 | 4 | 17.7 | 17.7 | 0.00 | 0.00 | 0.00 | 1008.4 | |
| 20260506024640 | 60 | 356 | 17.7 | 20.9 | 0.00 | 0.00 | 0.00 | 1008.2 | |
| 20260506024136 | 60 | 316 | 9.7 | 11.3 | 0.00 | 0.00 | 0.00 | 1008.1 |